Content
SEND FEEDBACK

Daily
Averages
Monthly
Summary
United States of America

NEW YORK - CENTRAL PARK, NEW YORK


Home > North America > United States > New York
Elevation: 14 feet     Latitude: 40 47N     Longitude: 073 58W

WEATHER
 
SELECT A DAY
Number of Records: 152,122;   Date Range: 11/1/95 - 11/21/14
 
SHARE

PRINT THIS DATA

[ ← Previous Day ]
WEATHER ALMANAC - OCTOBER 18, 2013
[ Next Day → ]
[ °C ]   °F
Weather ElementAverageHighLow
Temperature62.6 °F68 °F (1:51 pm)55.9 °F (11:51 pm)
Dewpoint44.7 °F61 °F (1:20 am)39 °F (3:51 pm)
Humidity53.3 %81 % (1:20 am)36 % (3:51 pm)
Barometer29.85 in29.99 in (10:51 pm)29.69 in (1:51 am)
Wind Speed7.2 mph12.7 mph (4:51 am)
Wind Gust25.3 mph (3:51 am)
Weather ElementAverage
Visibility10 mi
Wind DirectionSSE (155.2 °)

Weather ElementTotal
Precipitation---
Heating Degree Days3.1 (Base 65)
Growing Degree Days12 (Base 50)
Averaged from 25 records on October 18, 2013
WEATHER CONDITIONS BREAKOUT
WIND DIRECTION BREAKOUT
WEATHER BY HOUR - OCTOBER 18, 2013
[ °C ]   °F
Local TimeTemperatureDewpointHumidityBarometerVisibilityWind DirectionWind SpeedGust SpeedPrecipitationEventsConditions
1:20 AM66.9 °F61.0 °F81 %29.71 in10.0 miSW (230°)10.4 mph16.1 mphOvercast
1:31 AM66.9 °F61.0 °F81 %29.71 in10.0 miVariable6.9 mph18.4 mphOvercast
1:51 AM66.9 °F61.0 °F81 %29.69 in10.0 miVariable3.5 mphOvercast
2:51 AM66.9 °F53.1 °F61 %29.70 in10.0 miWNW (290°)8.1 mph20.7 mphOvercast
3:51 AM64.0 °F50.0 °F60 %29.73 in10.0 miWest (280°)10.4 mph25.3 mphClear
4:51 AM61.0 °F50.0 °F67 %29.75 in10.0 miWest (280°)12.7 mph20.7 mphClear
5:51 AM60.1 °F46.0 °F60 %29.78 in10.0 miWest (260°)9.2 mph20.7 mphClear
6:51 AM57.9 °F44.1 °F60 %29.80 in10.0 miWest (280°)6.9 mph17.3 mphClear
7:51 AM57.0 °F43.0 °F59 %29.83 in10.0 miWest (280°)8.1 mph17.3 mphClear
8:51 AM57.0 °F43.0 °F59 %29.87 in10.0 miWest (280°)8.1 mph21.9 mphClear
9:51 AM59.0 °F43.0 °F55 %29.87 in10.0 miWNW (290°)10.4 mph19.6 mphClear
10:51 AM61.0 °F42.1 °F50 %29.88 in10.0 miVariable4.6 mph16.1 mphClear
11:51 AM63.0 °F41.0 °F45 %29.88 in10.0 miNW (310°)9.2 mphClear
12:51 PM66.9 °F42.1 °F40 %29.87 in10.0 miWest (280°)6.9 mph16.1 mphClear
1:51 PM68.0 °F41.0 °F37 %29.86 in10.0 miNorthPartly Cloudy
2:51 PM66.9 °F39.9 °F37 %29.86 in10.0 miVariable6.9 mph16.1 mphClear
3:51 PM66.9 °F39.0 °F36 %29.86 in10.0 miWest (280°)8.1 mph17.3 mphClear
4:51 PM66.0 °F39.9 °F38 %29.86 in10.0 miWest (260°)8.1 mphClear
5:51 PM64.0 °F39.9 °F41 %29.89 in10.0 miWest (280°)5.8 mphClear
6:51 PM63.0 °F39.9 °F43 %29.92 in10.0 miVariable5.8 mphClear
7:51 PM62.1 °F39.9 °F44 %29.94 in10.0 miVariable6.9 mphClear
8:51 PM61.0 °F39.9 °F46 %29.95 in10.0 miNorthClear
9:51 PM59.0 °F39.0 °F48 %29.97 in10.0 miVariable4.6 mphClear
10:51 PM57.9 °F39.0 °F49 %29.99 in10.0 miVariable4.6 mphClear
11:51 PM55.9 °F39.9 °F55 %29.99 in10.0 miCalmClear
Hourly data recorded from KNYC, located miles away from New York - Central Park, New York







STORIES FROM OUR PARTNERS